Location: Piotrkow Trybunalski
(51.4000°N, 19.6830°E)
Time: 02:13:59
(UTC+02:00)

STRAND 1 - Pass Details

Date: 03 April 2023
Orbit: 767 x 779 km, 98.4° (Epoch: 06 June)

Event Time Altitude Azimuth Distance (km) Brightness Sun altitude
Rises 21:02:19 0° 7° (N) 3,253 ? -16.1°
Reaches altitude 10° 21:04:58 10° 355° (N) 2,321 ? -16.4°
Maximum altitude 21:09:04 25° 301° (WNW) 1,517 ? -17.0°
Drops below altitude 10° 21:13:09 10° 247° (WSW) 2,309 ? -17.5°
Sets 21:15:48 0° 235° (SW) 3,231 ? -17.9°
